Weather in Oktyabr'sky

Russia / Volgograd Oblast     49°38′15″N   44°33′23″E
temp.,
°C
wind,
m/s
gust,
m/s
humid.,
%
clouds,
%
prec.,
mm/h
press.,
hPa
HPBL,
m
28 july, wed
wed2800:00+21n11432 0.0 101711
03:00+20n22482 0.0 101716
06:00+21nnw25580 0.0 1017130
09:00+27nnw33403 0.0 1017963
12:00+30nnw442821 0.0 10153046
15:00+32n552362 0.0 10143272
18:00+30n34253 0.0 10142872
21:00+24ese334111 0.0 101530
29 july, thu
thu2900:00+24se2435100 0.0 101473
03:00+22s3339100 0.0 101427
06:00+23s364193 0.0 1014145
09:00+29ssw562980 0.0 1013725
12:00+34wsw672196 0.0 10113600
15:00+34sw582263 0.0 10103455
18:00+29w51137100 0.0 1009476
21:00+25sw4746100 0.1 1010104
30 july, fri
fri3000:00+24wsw37544 0.0 1010114
03:00+22wsw46615 0.0 100995
06:00+23wsw366213 0.0 1010169
09:00+30wsw44390 0.0 1010872
12:00+34wsw5730100 0.0 10093198
15:00+32wsw473649 0.4 10081673
18:00+31wnw674012 0.1 1008671
21:00+25ssw125183 0.2 100811
31 july, sat
sat3100:00+23wsw116281 0.4 100920
03:00+22ssw236649 0.8 100934
06:00+23wsw496575 0.2 1009260
09:00+28w565158 0.3 1009630
12:00+33w583453 0.0 10092330
15:00+34nw8826100 0.0 10082299
18:00+26ssw2347100 1.4 101080
21:00+25nw115125 1.4 101111
1 august, sun
sun100:00+24n225952 0.0 101111
03:00+23ssw11648 0.0 101211
06:00+24nne226254 0.0 101276
09:00+29e22470 0.0 1012553
12:00+34s33306 0.0 10112184
15:00+35ssw132430 0.0 10102910
18:00+35ese332337 0.0 1009694
21:00+27ese494021 0.0 1010154